�������l�o���
Date,Time,MP-1(��Sv/h),MP-2(��Sv/h),MP-3(��Sv/h),MP-4(��Sv/h),MP-5(��Sv/h),MP-6(��Sv/h),MP-7(��Sv/h),MP-8(��Sv/h),����,����(m/s),���J
2019/10/16,00:00,0.706,1.003,0.669,1.238,0.867,0.408,0.710,0.674,�k�k��,6.0,��
2019/10/16,00:10,0.705,1.002,0.668,1.239,0.870,0.407,0.709,0.675,�k��,6.3,��
2019/10/16,00:20,0.709,1.004,0.668,1.237,0.870,0.407,0.709,0.674,�k�k��,5.5,��
2019/10/16,00:30,0.705,1.001,0.669,1.238,0.869,0.408,0.710,0.673,�k�k��,6.3,��
2019/10/16,00:40,0.707,1.005,0.669,1.239,0.870,0.406,0.708,0.675,�k�k��,6.6,��
2019/10/16,00:50,0.707,1.005,0.666,1.237,0.869,0.406,0.710,0.675,�k�k��,6.1,��
2019/10/16,01:00,0.707,1.003,0.668,1.238,0.868,0.406,0.710,0.674,�k�k��,6.3,��
2019/10/16,01:10,0.707,1.002,0.667,1.237,0.868,0.407,0.710,0.674,�k�k��,6.3,��
2019/10/16,01:20,0.706,1.002,0.667,1.237,0.870,0.407,0.710,0.675,�k��,6.3,��
2019/10/16,01:30,0.706,1.003,0.668,1.236,0.869,0.408,0.711,0.674,�k�k��,5.8,��
2019/10/16,01:40,0.706,1.001,0.668,1.237,0.870,0.406,0.709,0.675,�k�k��,5.8,��
2019/10/16,01:50,0.706,1.003,0.668,1.238,0.870,0.406,0.710,0.673,�k��,5.3,��
2019/10/16,02:00,0.710,1.003,0.670,1.238,0.868,0.407,0.710,0.675,�k�k��,5.5,��
2019/10/16,02:10,0.706,1.001,0.668,1.238,0.868,0.408,0.710,0.674,�k�k��,5.7,��
2019/10/16,02:20,0.706,1.002,0.668,1.237,0.868,0.405,0.710,0.674,�k�k��,6.6,��
2019/10/16,02:30,0.706,1.004,0.669,1.237,0.868,0.407,0.709,0.676,�k�k��,5.7,��
2019/10/16,02:40,0.706,1.005,0.669,1.240,0.870,0.406,0.710,0.674,�k��,6.6,��
2019/10/16,02:50,0.708,1.002,0.668,1.236,0.869,0.406,0.710,0.674,�k��,6.6,��
2019/10/16,03:00,0.705,1.003,0.669,1.238,0.870,0.408,0.710,0.675,�k�k��,6.3,��
2019/10/16,03:10,0.705,1.002,0.668,1.239,0.870,0.408,0.711,0.674,�k�k��,6.3,��
2019/10/16,03:20,0.708,1.003,0.671,1.238,0.869,0.406,0.710,0.675,�k�k��,6.4,��
2019/10/16,03:30,0.708,1.003,0.667,1.239,0.869,0.407,0.710,0.675,�k�k��,6.0,��
2019/10/16,03:40,0.708,1.005,0.670,1.241,0.870,0.409,0.710,0.674,�k�k��,5.6,��
2019/10/16,03:50,0.709,1.005,0.669,1.239,0.872,0.406,0.708,0.675,�k�k��,5.8,��
2019/10/16,04:00,0.708,1.005,0.669,1.237,0.870,0.409,0.713,0.674,�k��,4.5,��
2019/10/16,04:10,0.707,1.007,0.670,1.240,0.869,0.408,0.711,0.675,�k��,5.2,��
2019/10/16,04:20,0.708,1.004,0.669,1.239,0.871,0.407,0.709,0.675,�k��,5.2,��
2019/10/16,04:30,0.709,1.004,0.668,1.241,0.870,0.408,0.709,0.676,�k�k��,5.5,��
2019/10/16,04:40,0.707,1.007,0.670,1.239,0.870,0.407,0.711,0.676,�k��,5.2,��
2019/10/16,04:50,0.708,1.003,0.669,1.240,0.870,0.407,0.711,0.675,�k�k��,5.5,��
2019/10/16,05:00,0.706,1.004,0.670,1.239,0.870,0.408,0.708,0.674,�k�k��,5.0,��
2019/10/16,05:10,0.707,1.003,0.670,1.240,0.869,0.408,0.713,0.676,�k�k��,5.7,��
2019/10/16,05:20,0.706,1.005,0.669,1.238,0.870,0.406,0.709,0.675,�k�k��,5.5,��
2019/10/16,05:30,0.708,1.004,0.669,1.241,0.870,0.408,0.710,0.677,�k�k��,4.7,��
2019/10/16,05:40,0.707,1.005,0.669,1.239,0.871,0.408,0.709,0.675,�k�k��,5.8,��
2019/10/16,05:50,0.707,1.005,0.668,1.238,0.870,0.406,0.710,0.675,�k�k��,5.6,��
2019/10/16,06:00,0.706,1.004,0.670,1.239,0.873,0.407,0.712,0.675,�k�k��,4.9,��
2019/10/16,06:10,0.708,1.003,0.670,1.238,0.871,0.409,0.711,0.674,�k�k��,4.7,��
2019/10/16,06:20,0.707,1.006,0.671,1.241,0.872,0.407,0.709,0.675,�k�k��,5.2,��
2019/10/16,06:30,0.708,1.004,0.667,1.238,0.869,0.408,0.710,0.676,�k�k��,4.9,��
2019/10/16,06:40,0.709,1.005,0.668,1.238,0.873,0.408,0.711,0.676,�k�k��,4.7,��
2019/10/16,06:50,0.707,1.006,0.670,1.237,0.870,0.408,0.710,0.675,�k��,3.9,��
2019/10/16,07:00,0.708,1.005,0.668,1.241,0.871,0.408,0.711,0.676,�k��,3.3,��
2019/10/16,07:10,0.708,1.004,0.669,1.242,0.871,0.407,0.710,0.675,�k�k��,3.8,��
2019/10/16,07:20,0.707,1.005,0.667,1.237,0.872,0.409,0.712,0.676,�k��,3.3,��
2019/10/16,07:30,0.707,1.005,0.669,1.241,0.870,0.408,0.712,0.677,�k��,3.0,��
2019/10/16,07:40,0.707,1.004,0.668,1.241,0.871,0.407,0.712,0.673,�k��,2.6,��
2019/10/16,07:50,0.707,1.005,0.668,1.239,0.870,0.408,0.711,0.676,�k��,2.5,��
2019/10/16,08:00,0.708,1.004,0.668,1.240,0.873,0.407,0.711,0.676,�k��,2.9,��
2019/10/16,08:10,0.708,1.005,0.670,1.240,0.874,0.407,0.710,0.677,�k�k��,3.0,��
2019/10/16,08:20,0.709,1.001,0.669,1.242,0.873,0.407,0.712,0.675,�k�k��,2.7,��
2019/10/16,08:30,0.708,1.002,0.666,1.242,0.872,0.409,0.710,0.676,�k�k��,3.8,��
2019/10/16,08:40,0.709,1.003,0.669,1.241,0.872,0.406,0.709,0.677,�k�k��,3.9,��
2019/10/16,08:50,0.708,1.000,0.668,1.243,0.871,0.408,0.711,0.675,�k�k��,4.0,��
2019/10/16,09:00,0.709,1.000,0.668,1.240,0.872,0.409,0.709,0.676,�k�k��,4.3,��
2019/10/16,09:10,0.708,1.000,0.668,1.242,0.873,0.408,0.711,0.675,�k�k��,4.4,��
2019/10/16,09:20,0.705,1.000,0.667,1.240,0.873,0.408,0.711,0.678,�k�k��,2.9,��
2019/10/16,09:30,0.705,1.002,0.668,1.242,0.873,0.410,0.710,0.675,�k,3.2,��
2019/10/16,09:40,0.705,1.003,0.669,1.242,0.873,0.408,0.710,0.676,�k�k��,3.3,��
2019/10/16,09:50,0.706,1.000,0.667,1.241,0.872,0.409,0.711,0.677,�k�k��,4.3,��
2019/10/16,10:00,0.705,1.002,0.666,1.242,0.872,0.408,0.713,0.674,�k�k��,4.9,��
2019/10/16,10:10,0.704,1.003,0.666,1.242,0.873,0.408,0.711,0.674,�k�k��,4.6,��
2019/10/16,10:20,0.703,1.003,0.664,1.243,0.872,0.406,0.711,0.673,�k�k��,4.6,��
2019/10/16,10:30,0.705,1.002,0.668,1.241,0.875,0.405,0.711,0.675,�k��,4.1,��
2019/10/16,10:40,0.707,1.005,0.667,1.242,0.876,0.407,0.712,0.674,�k��,4.4,��
2019/10/16,10:50,0.707,1.005,0.667,1.243,0.870,0.406,0.712,0.673,�k��,4.4,��
2019/10/16,11:00,0.708,1.006,0.667,1.244,0.873,0.406,0.714,0.674,�k��,4.2,��
2019/10/16,11:10,0.707,1.004,0.666,1.241,0.875,0.407,0.713,0.672,�k�k��,4.5,��
2019/10/16,11:20,0.710,1.005,0.667,1.246,0.874,0.407,0.712,0.674,�k��,4.1,��
2019/10/16,11:30,0.711,1.008,0.667,1.243,0.874,0.407,0.713,0.676,�k��,3.6,��
2019/10/16,11:40,0.710,1.007,0.668,1.244,0.875,0.407,0.713,0.675,�k��,3.5,��
2019/10/16,11:50,0.711,1.007,0.669,1.244,0.875,0.407,0.712,0.677,�k��,3.8,��
2019/10/16,12:00,0.710,1.008,0.668,1.247,0.878,0.409,0.712,0.676,�k�k��,3.9,��
2019/10/16,12:10,0.710,1.011,0.669,1.244,0.875,0.408,0.714,0.675,�k�k��,3.1,��
2019/10/16,12:20,0.711,1.011,0.670,1.245,0.877,0.410,0.712,0.675,���k��,2.6,��
2019/10/16,12:30,0.711,1.011,0.671,1.244,0.878,0.409,0.714,0.675,�k��,3.2,��
2019/10/16,12:40,0.710,1.012,0.671,1.243,0.877,0.410,0.711,0.674,�k��,3.5,��
2019/10/16,12:50,0.711,1.008,0.670,1.248,0.876,0.409,0.714,0.675,�k�k��,3.1,��
2019/10/16,13:00,0.709,1.012,0.671,1.247,0.877,0.410,0.715,0.675,���k��,3.1,��
2019/10/16,13:10,0.706,1.009,0.668,1.244,0.878,0.409,0.713,0.675,���k��,1.8,��
2019/10/16,13:20,0.708,1.009,0.670,1.247,0.878,0.409,0.714,0.675,�k��,2.2,��
2019/10/16,13:30,0.709,1.008,0.670,1.245,0.879,0.408,0.711,0.674,�k��,2.3,��
2019/10/16,13:40,0.710,1.008,0.669,1.248,0.879,0.408,0.712,0.676,�k��,2.2,��
2019/10/16,13:50,0.708,1.009,0.668,1.247,0.880,0.408,0.713,0.675,���k��,2.5,��
2019/10/16,14:00,0.707,1.010,0.670,1.246,0.876,0.408,0.713,0.675,�k��,1.6,��
2019/10/16,14:10,0.707,1.009,0.670,1.248,0.881,0.408,0.715,0.675,��,2.8,��
2019/10/16,14:20,0.706,1.012,0.669,1.247,0.878,0.409,0.713,0.675,��,1.8,��
2019/10/16,14:30,0.707,1.011,0.670,1.248,0.882,0.408,0.713,0.675,��,2.1,��
2019/10/16,14:40,0.710,1.009,0.669,1.246,0.878,0.408,0.713,0.676,���k��,2.5,��
2019/10/16,14:50,0.709,1.011,0.668,1.250,0.879,0.407,0.715,0.674,���k��,1.8,��
2019/10/16,15:00,0.710,1.009,0.670,1.248,0.879,0.407,0.713,0.675,��,1.1,��
2019/10/16,15:10,0.713,1.012,0.666,1.246,0.879,0.409,0.713,0.674,��,2.2,��
2019/10/16,15:20,0.712,1.011,0.670,1.248,0.879,0.410,0.712,0.673,���쓌,2.2,��
2019/10/16,15:30,0.712,1.013,0.670,1.247,0.882,0.410,0.712,0.675,�쓌,2.2,��
2019/10/16,15:40,0.712,1.012,0.670,1.246,0.879,0.411,0.712,0.674,���쓌,1.7,��
2019/10/16,15:50,0.711,1.014,0.669,1.246,0.881,0.408,0.714,0.673,���쓌,2.9,��
2019/10/16,16:00,0.713,1.013,0.672,1.246,0.881,0.409,0.712,0.678,��쓌,2.6,��
2019/10/16,16:10,0.712,1.016,0.671,1.248,0.880,0.410,0.717,0.677,��쓌,2.0,��
2019/10/16,16:20,0.713,1.014,0.671,1.247,0.881,0.410,0.715,0.678,��쓌,2.7,��
2019/10/16,16:30,0.712,1.019,0.672,1.247,0.881,0.411,0.714,0.679,��쓌,2.0,��
2019/10/16,16:40,0.712,1.019,0.672,1.247,0.880,0.411,0.712,0.679,��쓌,2.7,��
2019/10/16,16:50,0.713,1.019,0.672,1.247,0.877,0.410,0.713,0.679,��쓌,2.3,��
2019/10/16,17:00,0.712,1.019,0.671,1.248,0.879,0.412,0.715,0.679,��쓌,2.6,��
2019/10/16,17:10,0.714,1.017,0.672,1.247,0.880,0.411,0.713,0.678,��,2.7,��
2019/10/16,17:20,0.715,1.018,0.673,1.247,0.880,0.411,0.716,0.678,��,2.2,��
2019/10/16,17:30,0.713,1.019,0.674,1.246,0.883,0.410,0.715,0.677,��,2.4,��
2019/10/16,17:40,0.714,1.020,0.673,1.246,0.882,0.411,0.714,0.677,��,2.9,��
2019/10/16,17:50,0.715,1.019,0.674,1.245,0.881,0.412,0.714,0.677,��,2.9,��
2019/10/16,18:00,0.715,1.018,0.674,1.247,0.881,0.410,0.714,0.679,��,2.7,��
2019/10/16,18:10,0.714,1.019,0.673,1.244,0.881,0.411,0.714,0.679,��,3.0,��
2019/10/16,18:20,0.713,1.019,0.673,1.247,0.881,0.410,0.714,0.676,��,3.5,��
2019/10/16,18:30,0.715,1.020,0.673,1.248,0.881,0.411,0.715,0.676,��,3.4,��
2019/10/16,18:40,0.713,1.017,0.672,1.248,0.882,0.411,0.714,0.678,��,3.4,��
2019/10/16,18:50,0.714,1.019,0.674,1.248,0.882,0.410,0.715,0.678,��,3.5,��
2019/10/16,19:00,0.715,1.020,0.672,1.247,0.883,0.411,0.715,0.677,��,3.8,��
2019/10/16,19:10,0.713,1.018,0.673,1.247,0.881,0.409,0.714,0.678,��,3.3,��
2019/10/16,19:20,0.713,1.018,0.675,1.247,0.881,0.412,0.714,0.678,��,3.3,��
2019/10/16,19:30,0.713,1.015,0.673,1.247,0.882,0.412,0.714,0.677,��쐼,2.5,��
2019/10/16,19:40,0.714,1.017,0.675,1.247,0.882,0.412,0.713,0.677,��,2.6,��
2019/10/16,19:50,0.712,1.018,0.673,1.246,0.884,0.410,0.714,0.678,��쐼,3.9,��
2019/10/16,20:00,0.714,1.016,0.672,1.249,0.884,0.410,0.715,0.677,��,3.2,��
2019/10/16,20:10,0.713,1.017,0.673,1.249,0.882,0.413,0.714,0.676,��,5.6,��
2019/10/16,20:20,0.716,1.016,0.674,1.248,0.882,0.410,0.715,0.677,��쐼,5.5,��
2019/10/16,20:30,0.713,1.018,0.672,1.247,0.883,0.411,0.714,0.677,��,6.0,��
2019/10/16,20:40,0.714,1.018,0.672,1.247,0.883,0.411,0.714,0.677,��쐼,6.0,��
2019/10/16,20:50,0.714,1.016,0.673,1.249,0.881,0.410,0.715,0.677,��쐼,5.6,��
2019/10/16,21:00,0.714,1.017,0.674,1.245,0.884,0.410,0.716,0.677,��쐼,5.2,��
2019/10/16,21:10,0.714,1.019,0.673,1.247,0.882,0.410,0.714,0.679,��쐼,5.5,��
2019/10/16,21:20,0.713,1.014,0.673,1.246,0.883,0.410,0.716,0.678,��쐼,4.9,��
2019/10/16,21:30,0.714,1.015,0.672,1.247,0.882,0.411,0.715,0.677,��쐼,4.5,��
2019/10/16,21:40,0.713,1.015,0.673,1.246,0.880,0.411,0.715,0.677,��,4.9,��
2019/10/16,21:50,0.714,1.016,0.674,1.247,0.881,0.412,0.716,0.678,��쐼,4.5,��
2019/10/16,22:00,0.715,1.017,0.673,1.249,0.884,0.412,0.714,0.678,��쐼,3.6,��
2019/10/16,22:10,0.713,1.016,0.675,1.247,0.884,0.412,0.714,0.679,��쐼,3.3,��
2019/10/16,22:20,0.714,1.015,0.675,1.246,0.885,0.410,0.716,0.678,��쐼,3.0,��
2019/10/16,22:30,0.712,1.017,0.674,1.250,0.882,0.412,0.713,0.677,��쐼,2.8,��
2019/10/16,22:40,0.714,1.018,0.676,1.247,0.883,0.411,0.715,0.679,��쐼,2.5,��
2019/10/16,22:50,0.713,1.014,0.675,1.247,0.881,0.412,0.713,0.677,��쐼,1.9,��
2019/10/16,23:00,0.715,1.017,0.673,1.248,0.881,0.410,0.716,0.678,��쐼,1.0,��
2019/10/16,23:10,0.715,1.016,0.672,1.248,0.884,0.411,0.717,0.678,�쐼,0.9,��
2019/10/16,23:20,0.712,1.016,0.673,1.249,0.883,0.411,0.714,0.679,-,CALM,��
2019/10/16,23:30,0.712,1.012,0.674,1.248,0.884,0.411,0.714,0.678,�k,1.1,��
2019/10/16,23:40,0.713,1.015,0.673,1.246,0.883,0.411,0.715,0.679,�k�k��,2.1,��
2019/10/16,23:50,0.714,1.016,0.675,1.250,0.882,0.411,0.716,0.677,�k�k��,2.8,��
